CDC5922 ZUCK-ZULS

Flight info

Callsign CDC5922
Flight time N/A
Altitude 39000
Route K0850S1100 DCT URGEG W80 WFX V69 KDJ W9 BIGOR W260 ENPAT DCT DUMIX DCT
Aircraft A20N/M-SDE2E3FGHIRWXY/LB1

Departure

Time N/A
Airport Chongqing Jiangbei International Airport (ZUCK)

Arrival

Time 2026-05-04 08:53
Airport Lhasa Gonggar International Airport (ZULS)
Time Latitude Longitude Altitude Speed Heading
2026-05-04 08:38 29.23701 92.46109 35191 ft 388 kts 270°
2026-05-04 08:38 29.23782 92.43032 34587 ft 388 kts 270°
2026-05-04 08:40 29.24373 92.20969 29301 ft 413 kts 268°
2026-05-04 08:40 29.24464 92.17632 28367 ft 420 kts 267°
2026-05-04 08:40 29.24561 92.14278 27426 ft 427 kts 267°
2026-05-04 08:41 29.24659 92.10905 26490 ft 434 kts 267°
2026-05-04 08:41 29.24759 92.07439 25505 ft 441 kts 267°
2026-05-04 08:41 29.24858 92.03913 24469 ft 449 kts 268°
2026-05-04 08:41 29.24959 92.00322 23786 ft 445 kts 268°
2026-05-04 08:42 29.25063 91.96839 23613 ft 431 kts 268°
2026-05-04 08:42 29.25161 91.93457 23427 ft 418 kts 268°
2026-05-04 08:42 29.25254 91.90166 23259 ft 405 kts 267°
2026-05-04 08:42 29.25339 91.87009 23120 ft 393 kts 267°
2026-05-04 08:43 29.25478 91.81793 22920 ft 371 kts 267°
2026-05-04 08:43 29.25623 91.76839 22779 ft 345 kts 268°
2026-05-04 08:43 29.26205 91.69152 21745 ft 349 kts 271°
2026-05-04 08:43 29.26434 91.66432 21403 ft 340 kts 271°
2026-05-04 08:44 29.26657 91.63731 21069 ft 336 kts 271°
2026-05-04 08:44 29.26873 91.61089 20723 ft 331 kts 271°
2026-05-04 08:46 29.28356 91.42514 18207 ft 341 kts 272°
2026-05-04 08:46 29.28572 91.39807 17832 ft 339 kts 272°
2026-05-04 08:46 29.28787 91.37114 17465 ft 338 kts 272°
2026-05-04 08:46 29.28998 91.34441 17107 ft 335 kts 272°
2026-05-04 08:47 29.29207 91.31785 16806 ft 331 kts 272°
2026-05-04 08:47 29.29407 91.29275 16798 ft 308 kts 272°
2026-05-04 08:47 29.29590 91.26904 16817 ft 292 kts 271°
2026-05-04 08:47 29.29774 91.24585 16678 ft 286 kts 272°
2026-05-04 08:48 29.29957 91.22391 16301 ft 269 kts 271°
2026-05-04 08:48 29.30076 91.20291 16069 ft 266 kts 270°
2026-05-04 08:48 29.30153 91.18160 15873 ft 265 kts 268°
2026-05-04 08:48 29.30182 91.16068 15750 ft 253 kts 266°
2026-05-04 08:49 29.30156 91.14139 15525 ft 239 kts 265°
2026-05-04 08:50 29.29988 91.04434 14023 ft 182 kts 265°
2026-05-04 08:50 29.29953 91.02992 13834 ft 181 kts 265°
2026-05-04 08:51 29.29910 91.01546 13575 ft 180 kts 265°
2026-05-04 08:51 29.29881 91.00132 13330 ft 179 kts 268°
2026-05-04 08:51 29.29932 90.98696 13029 ft 179 kts 269°
2026-05-04 08:51 29.29915 90.97293 12639 ft 177 kts 266°
2026-05-04 08:52 29.29872 90.95892 12284 ft 174 kts 268°
2026-05-04 08:52 29.29861 90.94496 12054 ft 176 kts 269°
2026-05-04 08:52 29.29848 90.93097 11746 ft 173 kts 267°
2026-05-04 08:52 29.29814 90.91849 11728 ft 116 kts 269°
2026-05-04 08:53 29.29818 90.91477 11724 ft 17 kts 265°